Location: Anan
(43.3550°N, 0.8171°E)
Time: 13:27:45
(UTC+00:00)

Helios 1A - Pass Details

Date: 14 May 2026
Orbit: 540 x 559 km, 98.2° (Epoch: 11 June)

Event Time Altitude Azimuth Distance (km) Brightness Sun altitude
Rises 22:17:50 0° 14° (NNE) 2,712 7.1 -24.1°
Reaches altitude 10° 22:19:58 10° 16° (NNE) 1,813 6.1 -24.3°
Enters shadow 22:23:03 53° 31° (NNE) 669 3.3 -24.5°
